Location: Chuathbaluk
(61.5726°N, 159.2454°W)
Time: 17:38:49
(UTC+00:00)

NOAA 15 - Pass Details

Date: 24 January 2021
Orbit: 798 x 812 km, 98.7° (Epoch: 05 March)

Event Time Altitude Azimuth Distance (km) Brightness Sun altitude
Rises 04:25:53 0° 150° (SSE) 3,308 7.6 -14.1°
Reaches altitude 10° 04:28:12 10° 148° (SSE) 2,382 6.9 -14.3°
Maximum altitude 04:33:27 72° 65° (ENE) 853 4.5 -14.9°
Drops below altitude 10° 04:38:45 10° 343° (NNW) 2,406 7.1 -15.6°
Sets 04:41:06 0° 342° (NNW) 3,343 7.9 -15.8°
